Date String (YYYY-MM-DD hh:mm:ss) UTC,Instrument flags,Ambient pressure (hPa),Sample flow (lpm),Bypass flow (lpm),Sample temperature (°C),Ambient temperature (°C),ASC tube jacket temperature (°C),LED temperature (°C),Box temperature (°C),Sample RH (%),Span deviation,Mass concentration (μg/m³),Mass concentration (μg/m³),Mass concentration (μg/m³)
DateTimeUTC,F1_M11,P_M11,Q1_M11,Q2_M11,T1_M11,T2_M11,T3_M11,T4_M11,T5_M11,U1_M11,ZSPAN_M11,X0_M11,X2_M11,X1_M11
2021-11-12 08:00:00,,0829.7,5.00,0.00,22.8,22.1,00.0,31.9,24.5,11.1,0000.0,0007.95,0002.68,0001.76
2021-11-12 08:01:00,,0829.8,5.00,0.00,22.8,22.1,00.0,31.8,24.5,11.0,0000.0,0008.01,0002.67,0001.77
2021-11-12 08:02:00,,0829.8,5.01,0.00,22.8,22.1,00.0,31.8,24.5,11.1,0000.0,0008.99,0002.70,0001.76
2021-11-12 08:03:00,,0829.9,5.01,0.00,22.8,22.0,00.0,31.8,24.5,11.1,0000.0,0008.92,0002.65,0001.75
2021-11-12 08:04:00,,0829.8,4.99,0.00,22.8,22.0,00.0,31.8,24.5,11.1,0000.0,0009.04,0002.62,0001.74
2021-11-12 08:05:00,,0829.9,5.00,0.00,22.8,22.0,00.0,31.8,24.5,11.1,0000.0,0009.33,0002.66,0001.72
2021-11-12 08:06:00,,0829.9,5.00,0.00,22.7,22.0,00.0,31.8,24.5,11.1,0000.0,0009.13,0002.65,0001.71
2021-11-12 08:07:00,,0829.9,5.00,0.00,22.7,22.0,00.0,31.8,24.5,11.1,0000.0,0008.85,0002.64,0001.69
2021-11-12 08:08:00,,0830.0,5.00,0.00,22.8,22.0,00.0,31.8,24.6,11.1,0000.0,0008.94,0002.67,0001.66
2021-11-12 08:09:00,,0830.0,5.00,0.00,22.7,22.0,00.0,31.8,24.6,11.2,0000.0,0008.96,0002.72,0001.66
2021-11-12 08:10:00,,0829.9,5.00,0.00,22.8,22.1,00.0,31.8,24.6,11.1,0000.0,0008.97,0002.72,0001.66
2021-11-12 08:11:00,,0829.8,5.00,0.00,22.8,22.1,00.0,31.8,24.6,11.1,0000.0,0009.11,0002.74,0001.65
2021-11-12 08:12:00,,0829.8,4.99,0.00,22.8,22.1,00.0,31.8,24.6,11.1,0000.0,0008.81,0002.67,0001.63
2021-11-12 08:13:00,,0829.9,5.01,0.00,22.8,22.1,00.0,31.8,24.6,11.1,0000.0,0007.77,0002.61,0001.63
2021-11-12 08:14:00,,0829.9,4.99,0.00,22.8,22.1,00.0,31.8,24.6,11.1,0000.0,0007.21,0002.64,0001.63
2021-11-12 08:15:00,,0829.9,4.99,0.00,22.8,22.1,00.0,31.8,24.6,11.1,0000.0,0007.48,0002.64,0001.61
2021-11-12 08:16:00,,0830.1,5.02,0.00,22.8,22.1,00.0,31.8,24.6,11.1,0000.0,0006.78,0002.59,0001.61
2021-11-12 08:17:00,,0830.1,4.98,0.00,22.8,22.1,00.0,31.8,24.6,11.1,0000.0,0006.71,0002.62,0001.59
2021-11-12 08:18:00,,0830.1,5.01,0.00,22.8,22.1,00.0,31.8,24.6,11.1,0000.0,0006.91,0002.65,0001.59
2021-11-12 08:19:00,,0830.1,5.00,0.00,22.8,22.1,00.0,31.8,24.7,11.1,0000.0,0007.65,0002.63,0001.58
2021-11-12 08:20:00,,0830.1,5.00,0.00,22.8,22.2,00.0,31.8,24.7,11.1,0000.0,0008.82,0002.61,0001.56
2021-11-12 08:21:00,,0830.1,4.99,0.00,22.8,22.2,00.0,31.8,24.7,11.1,0000.0,0009.39,0002.55,0001.55
2021-11-12 08:22:00,,0829.9,5.00,0.00,22.9,22.2,00.0,31.8,24.7,11.1,0000.0,0009.20,0002.50,0001.54
2021-11-12 08:23:00,,0829.9,5.01,0.00,22.9,22.2,00.0,31.8,24.7,11.1,0000.0,0009.34,0002.55,0001.54
2021-11-12 08:24:00,,0829.9,4.99,0.00,22.9,22.2,00.0,31.8,24.7,11.1,0000.0,0009.64,0002.55,0001.53
2021-11-12 08:25:00,,0830.0,5.00,0.00,22.8,22.1,00.0,31.8,24.7,11.1,0000.0,0010.24,0002.53,0001.53
2021-11-12 08:26:00,,0830.1,5.00,0.00,22.8,22.1,00.0,31.8,24.6,11.1,0000.0,0009.90,0002.54,0001.55
2021-11-12 08:27:00,,0830.1,5.00,0.00,22.9,22.1,00.0,31.8,24.6,11.1,0000.0,0009.89,0002.55,0001.55
2021-11-12 08:28:00,,0830.1,5.00,0.00,22.9,22.1,00.0,31.8,24.7,11.1,0000.0,0009.86,0002.56,0001.57
2021-11-12 08:29:00,,0830.1,5.01,0.00,22.9,22.1,00.0,31.8,24.7,11.0,0000.0,0010.11,0002.51,0001.58
2021-11-12 08:30:00,,0830.1,5.00,0.00,22.9,22.2,00.0,31.9,24.7,11.0,0000.0,0009.96,0002.50,0001.61
2021-11-12 08:31:00,,0830.1,5.00,0.00,22.9,22.2,00.0,31.9,24.7,11.1,0000.0,0009.07,0002.51,0001.62
2021-11-12 08:32:00,,0830.1,4.99,0.00,22.9,22.2,00.0,31.9,24.7,11.1,0000.0,0008.88,0002.60,0001.63
2021-11-12 08:33:00,,0830.1,5.01,0.00,22.9,22.2,00.0,31.9,24.7,11.1,0000.0,0009.17,0002.59,0001.64
2021-11-12 08:34:00,,0830.1,5.00,0.00,22.9,22.2,00.0,31.9,24.8,11.1,0000.0,0009.46,0002.57,0001.65
2021-11-12 08:35:00,,0830.2,5.00,0.00,22.9,22.2,00.0,31.9,24.8,11.1,0000.0,0009.42,0002.57,0001.66
2021-11-12 08:36:00,,0830.1,5.01,0.00,22.9,22.2,00.0,31.9,24.7,11.2,0000.0,0008.68,0002.62,0001.66
2021-11-12 08:37:00,,0830.1,5.00,0.00,22.9,22.1,00.0,31.9,24.7,11.2,0000.0,0008.56,0002.64,0001.67
2021-11-12 08:38:00,,0830.2,5.00,0.00,22.9,22.1,00.0,31.9,24.7,11.2,0000.0,0008.77,0002.74,0001.68
2021-11-12 08:39:00,,0830.2,4.99,0.00,22.9,22.0,00.0,31.9,24.6,11.2,0000.0,0009.12,0002.70,0001.68
2021-11-12 08:40:00,,0830.2,5.00,0.00,22.9,22.1,00.0,31.9,24.6,11.2,0000.0,0009.55,0002.71,0001.66
2021-11-12 08:41:00,,0830.3,5.00,0.00,22.8,22.1,00.0,31.9,24.6,11.3,0000.0,0009.37,0002.69,0001.65
2021-11-12 08:42:00,,0830.3,5.00,0.00,22.8,22.0,00.0,31.9,24.6,11.3,0000.0,0009.18,0002.61,0001.64
2021-11-12 08:43:00,,0830.2,5.01,0.00,22.8,22.0,00.0,31.9,24.5,11.3,0000.0,0009.18,0002.50,0001.63
2021-11-12 08:44:00,,0830.2,4.99,0.00,22.8,22.0,00.0,31.8,24.5,11.3,0000.0,0008.82,0002.46,0001.63
2021-11-12 08:45:00,,0830.1,5.00,0.00,22.8,22.0,00.0,31.8,24.5,11.3,0000.0,0008.53,0002.41,0001.61
2021-11-12 08:46:00,,0830.2,5.00,0.00,22.7,22.0,00.0,31.8,24.5,11.3,0000.0,0008.88,0002.41,0001.61
2021-11-12 08:47:00,,0830.3,5.01,0.00,22.7,22.0,00.0,31.8,24.5,11.3,0000.0,0008.99,0002.42,0001.60
2021-11-12 08:48:00,,0830.2,4.99,0.00,22.7,22.0,00.0,31.8,24.4,11.3,0000.0,0009.08,0002.47,0001.59
2021-11-12 08:49:00,,0830.4,5.00,0.00,22.7,21.9,00.0,31.8,24.4,11.3,0000.0,0008.97,0002.44,0001.58
2021-11-12 08:50:00,,0830.4,4.99,0.00,22.7,21.9,00.0,31.8,24.4,11.3,0000.0,0008.87,0002.50,0001.59
2021-11-12 08:51:00,,0830.4,5.01,0.00,22.7,21.9,00.0,31.8,24.4,11.3,0000.0,0008.38,0002.56,0001.61
2021-11-12 08:52:00,,0830.3,5.00,0.00,22.6,21.8,00.0,31.8,24.3,11.3,0000.0,0007.72,0002.55,0001.62
2021-11-12 08:53:00,,0830.3,5.01,0.00,22.6,21.8,00.0,31.7,24.3,11.4,0000.0,0007.62,0002.58,0001.63
2021-11-12 08:54:00,,0830.3,5.00,0.00,22.6,21.8,00.0,31.7,24.3,11.4,0000.0,0007.82,0002.61,0001.64
2021-11-12 08:55:00,,0830.4,5.00,0.00,22.6,21.8,00.0,31.7,24.3,11.4,0000.0,0007.84,0002.68,0001.65
2021-11-12 08:56:00,,0830.4,5.01,0.00,22.6,21.8,00.0,31.7,24.3,11.4,0000.0,0007.96,0002.77,0001.65
2021-11-12 08:57:00,,0830.5,5.00,0.00,22.6,21.8,00.0,31.7,24.3,11.5,0000.0,0007.57,0002.79,0001.65
2021-11-12 08:58:00,,0830.6,4.99,0.00,22.5,21.7,00.0,31.7,24.3,11.5,0000.0,0007.82,0002.82,0001.66
2021-11-12 08:59:00,,0830.6,5.01,0.00,22.5,21.7,00.0,31.7,24.3,11.5,0000.0,0007.86,0002.83,0001.66
